Regional Weather Roundup
Issued by NWS Boston, MA

Current Version | Previous Version | Text Only | Print | Product List | Glossary Off
Versions: 1 2 3 4 5 6 7 8 9 10 11 12 13 14 15 16 17 18 19 20 21 22 23 24 25 26 27
000 ASUS41 KBOX 260610 RWRBOX REGIONAL WEATHER ROUNDUP NATIONAL WEATHER SERVICE TAUNTON MA 200 AM EDT SUN MAR 26 2017 NOTE: "FAIR" INDICATES FEW OR NO CLOUDS BELOW 12,000 FEET WITH NO SIGNIFICANT WEATHER AND/OR OBSTRUCTIONS TO VISIBILITY. MAZALL-260700- EASTERN MASSACHUSETTS CITY SKY/WX TMP DP RH WIND PRES REMARKS BOSTON CLOUDY 33 28 81 N6 30.45R WCI 28 6HR MIN TEMP: 33; 6HR MAX TEMP: 37; BEVERLY CLOUDY 30 28 92 N6 30.44R WCI 24 LAWRENCE CLOUDY 25 25 100 CALM 30.47R BEDFORD CLOUDY 25 23 92 CALM 30.44R FOG BLUE HILL N/A 29 27 92 N14 30.39S WCI 18 NORWOOD CLEAR 30 28 92 CALM 30.44S MARSHFIELD CLEAR 34 34 100 VRB5 30.43S WCI 30 PLYMOUTH FOG 27 25 92 CALM 30.43S VSB 3/4 TAUNTON CLEAR 25 22 88 CALM 30.43S FOG NEW BEDFORD CLOUDY 31 28 89 N3 30.42S FOG $$ MAZALL-260700- CAPE COD AND THE ISLANDS CITY SKY/WX TMP DP RH WIND PRES REMARKS FALMOUTH PTCLDY 28 28 100 MISG 30.44R FOG HYANNIS CLEAR 32 31 96 N5 30.41R WCI 27 CHATHAM CLEAR 34 33 96 N3 30.43R PROVINCETOWN CLOUDY 37 35 92 N7 30.44R WCI 32 NANTUCKET MOCLDY 34 32 92 N7 30.42R WCI 28 MARTHAS VNYRD CLEAR 32 30 92 N5 30.42R WCI 27 $$ MAZALL-260700- CENTRAL AND WESTERN MASSACHUSETTS CITY SKY/WX TMP DP RH WIND PRES REMARKS WORCESTER CLEAR 31 23 72 N7 30.39S WCI 24 6HR MIN TEMP: 31; 6HR MAX TEMP: 34; FITCHBURG PTCLDY N/A N/A N/A W3 30.44S HAZE ORANGE CLEAR 25 25 100 CALM 30.43S FOG SPRINGFIELD CLOUDY 22 20 92 N6 30.42S WCI 14 WESTFIELD CLOUDY 29 28 96 N5 30.43S WCI 24 NORTH ADAMS CLOUDY 30 28 92 CALM 30.43S PITTSFIELD CLOUDY 27 26 96 CALM 30.37S $$ RIZALL-260700- RHODE ISLAND CITY SKY/WX TMP DP RH WIND PRES REMARKS PROVIDENCE CLEAR 32 27 81 N6 30.44R WCI 26 6HR MIN TEMP: 32; 6HR MAX TEMP: 40; NEWPORT CLEAR 34 32 92 N7 30.42R WCI 28 BLOCK ISLAND CLOUDY 37 34 89 NE8 30.42F WCI 31 SMITHFIELD CLEAR 28 27 96 NE6 30.43R WCI 22 WESTERLY CLOUDY 33 32 96 CALM 30.43R $$ CTZALL-260700- CONNECTICUT CITY SKY/WX TMP DP RH WIND PRES REMARKS BRADLEY INTL CLOUDY 32 31 96 N5 30.44R WCI 27 6HR MIN TEMP: 31; 6HR MAX TEMP: 36; HARTFORD CLOUDY 30 30 100 N3 30.44S FOG BRIDGEPORT CLOUDY 39 33 79 NE9 30.42S DANBURY CLOUDY 38 33 82 NE8 30.42R GROTON PTCLDY 33 31 92 CALM 30.43R NEW HAVEN CLOUDY 32 32 100 N3 30.43S CHESTER NOT AVBL MERIDEN CLOUDY 35 31 85 N5 30.43S WCI 31 WILLIMANTIC FOG 30 28 92 CALM 30.44R VSB 3/4 OXFORD CLOUDY 36 28 75 NE5 30.41R WCI 32 $$ MEZ002-015-021-024-NHZ003-005-008-011-012-014-VTZ005-008-260700- NORTHERN NEW ENGLAND CITY SKY/WX TMP DP RH WIND PRES REMARKS PORTLAND ME CLEAR 30 11 45 NW6 30.46R WCI 24 6HR MIN TEMP: 29; 6HR MAX TEMP: 38; BANGOR ME CLEAR 25 7 46 N10 30.46R WCI 15 CONCORD NH CLOUDY 22 20 92 CALM 30.45R FOG MANCHESTER NH NOT AVBL NASHUA NH NOT AVBL PORTSMOUTH NH PTCLDY 28 27 96 N3 30.44R JAFFREY NH CLOUDY 26 23 88 CALM 30.41 KEENE NH CLOUDY 25 25 100 S3 30.46R FOG BURLINGTON VT CLOUDY 22 18 85 CALM 30.48R MT. WASHINGTON PTCLDY 19 -18 17 NW32 N/A WCI 0 $$ NYZ052-076-260700- EASTERN NEW YORK CITY SKY/WX TMP DP RH WIND PRES REMARKS ALBANY CLOUDY 29 21 72 N5 30.46S WCI 24 6HR MIN TEMP: 29; 6HR MAX TEMP: 37; NEW YORK CITY CLOUDY 43 33 68 NE14 30.41R 6HR MIN TEMP: 43; 6HR MAX TEMP: 48; $$ ANZALL-260700- MARINE OBSERVATIONS STATION/POSITION TIME TEMP WIND PRES VSBY WAVE AIR SEA DIR/SP/G HT/PER (UTC) (F) (DEG/KT/KT) (MB) (MI) (FT/S) BOSTON BUOY 0450 38 40 360/ 14/ 16 1029.7 1/ 5 BUZZARDS BAY 0500 36 30/ 5/ 5 1030.7R NANTUCKET SOUND 0550 38 1030.1R 1 MASS BAY-STELLWA 0504 37 39 350/ 12/ 14 1029.2R ISLE OF SHOALS 0500 35 360/ 12/ 13 1030.6R S OF BLOCK IS 0555 40 N/A 4/ 8 $$ ......................KEY......................... SKY/WX - SKY CONDITION/PRESENT WEATHER TMP - TEMPERATURE IN FAHRENHEIT DWPT - DEWPOINT IN FAHRENHEIT RH - RELATIVE HUMIDITY IN PERCENT WIND - DIRECTION AND SPEED IN MPH PRES - MEAN SEA LEVEL PRESSURE IN INCHES OF HG WCI - WIND CHILL INDEX VSB - VISIBILITY IN MILES HX - HEAT INDEX TC - TEMPERATURE IN CELSIUS VRB - VARIABLE WIND DIRECTION N/A - NOT AVAILABLE

USA.gov is the U.S. government's official web portal to all federal, state and local government web resources and services.